When you browse on this site, cookies collect data to enhance your experience and personalize the content and advertising you see.
Visit our Privacy Policy to learn more. By continuing to use the site, you agree to this use of cookies and data.
  • In Deutschland
  • Länderverzeichnis
  • Für 7 Tage
  • Wassertemperatur
  • Wetterkarte
  • Widgets
  • user-avatar
    Anmelden

    Stündliche Wetter Orange Walk

    Heute, 22 September, Sonntag

    Zeit Temperatur Niederschläge Wind Luftdruck Luftfeuchtigkeit
    00:00 +24°C° 0.1 mm 0 m/S 757 mmHg 93%
    01:00 +24°C° 0.1 mm 0 m/S 756 mmHg 94%
    02:00 +23°C° 0.1 mm 0 m/S 756 mmHg 95%
    03:00 +25°C° 0.1 mm 1 m/S 756 mmHg 95%
    04:00 +25°C° 0 mm 1 m/S 756 mmHg 95%
    05:00 +25°C° 0 mm 1 m/S 756 mmHg 96%
    06:00 +25°C° 0 mm 1 m/S 756 mmHg 96%
    07:00 +27°C° 0 mm 1 m/S 757 mmHg 87%
    08:00 +29°C° 0 mm 1 m/S 757 mmHg 78%
    09:00 +32°C° 0 mm 1 m/S 758 mmHg 70%
    10:00 +33°C° 0 mm 1 m/S 757 mmHg 64%
    11:00 +34°C° 0 mm 1 m/S 757 mmHg 58%
    12:00 +36°C° 0 mm 1 m/S 756 mmHg 53%
    13:00 +35°C° 0.1 mm 1 m/S 755 mmHg 55%
    14:00 +35°C° 0.1 mm 1 m/S 755 mmHg 57%
    15:00 +35°C° 0.1 mm 2 m/S 754 mmHg 59%
    16:00 +32°C° 0.2 mm 2 m/S 754 mmHg 68%
    17:00 +30°C° 0.2 mm 2 m/S 754 mmHg 77%
    18:00 +28°C° 0.2 mm 2 m/S 755 mmHg 86%
    19:00 +28°C° 0.1 mm 2 m/S 755 mmHg 88%
    20:00 +27°C° 0.1 mm 1 m/S 756 mmHg 90%
    21:00 +27°C° 0.1 mm 1 m/S 757 mmHg 92%
    22:00 +26°C° 0.2 mm 1 m/S 757 mmHg 93%
    23:00 +26°C° 0.2 mm 1 m/S 757 mmHg 94%

    Morgen, 23 September, Montag

    Zeit Temperatur Niederschläge Wind Luftdruck Luftfeuchtigkeit
    00:00 +26°C° 0.2 mm 1 m/S 756 mmHg 94%
    01:00 +24°C° 0.1 mm 0 m/S 756 mmHg 95%
    02:00 +23°C° 0.1 mm 0 m/S 756 mmHg 95%
    03:00 +23°C° 0.1 mm 0 m/S 756 mmHg 96%
    04:00 +23°C° 0 mm 0 m/S 756 mmHg 96%
    05:00 +23°C° 0 mm 0 m/S 756 mmHg 96%
    06:00 +23°C° 0 mm 0 m/S 756 mmHg 96%
    07:00 +25°C° 0 mm 0 m/S 756 mmHg 87%
    08:00 +28°C° 0 mm 0 m/S 757 mmHg 78%
    09:00 +30°C° 0 mm 0 m/S 757 mmHg 69%
    10:00 +32°C° 0.2 mm 0 m/S 757 mmHg 64%
    11:00 +33°C° 0.2 mm 0 m/S 756 mmHg 58%
    12:00 +36°C° 0.2 mm 1 m/S 756 mmHg 53%
    13:00 +36°C° 0.4 mm 1 m/S 755 mmHg 56%
    14:00 +35°C° 0.4 mm 1 m/S 755 mmHg 60%
    15:00 +35°C° 0.4 mm 2 m/S 754 mmHg 63%
    16:00 +32°C° 0.2 mm 2 m/S 754 mmHg 71%
    17:00 +30°C° 0.2 mm 2 m/S 754 mmHg 79%
    18:00 +29°C° 0.2 mm 2 m/S 754 mmHg 87%
    19:00 +28°C° 0.6 mm 1 m/S 755 mmHg 89%
    20:00 +27°C° 0.6 mm 1 m/S 755 mmHg 91%
    21:00 +27°C° 0.6 mm 1 m/S 756 mmHg 93%
    22:00 +27°C° 0.4 mm 1 m/S 756 mmHg 94%
    23:00 +26°C° 0.4 mm 1 m/S 756 mmHg 95%

    übermorgen, 24 September, Dienstag

    Zeit Temperatur Niederschläge Wind Luftdruck Luftfeuchtigkeit
    00:00 +24°C° 0.4 mm 0 m/S 755 mmHg 96%
    01:00 +24°C° 0 mm 0 m/S 755 mmHg 96%
    02:00 +26°C° 0 mm 1 m/S 755 mmHg 96%
    03:00 +26°C° 0 mm 1 m/S 755 mmHg 96%
    04:00 +26°C° 0 mm 1 m/S 755 mmHg 97%
    05:00 +25°C° 0 mm 1 m/S 755 mmHg 97%
    06:00 +25°C° 0 mm 1 m/S 755 mmHg 97%
    07:00 +27°C° 0 mm 1 m/S 756 mmHg 89%
    08:00 +29°C° 0 mm 1 m/S 756 mmHg 81%
    09:00 +31°C° 0 mm 1 m/S 756 mmHg 72%
    10:00 +33°C° 0 mm 1 m/S 756 mmHg 65%
    11:00 +35°C° 0 mm 1 m/S 755 mmHg 57%
    12:00 +37°C° 0 mm 1 m/S 755 mmHg 50%
    13:00 +36°C° 0.2 mm 1 m/S 754 mmHg 53%
    14:00 +36°C° 0.2 mm 1 m/S 753 mmHg 56%
    15:00 +35°C° 0.2 mm 1 m/S 753 mmHg 59%
    16:00 +33°C° 0.6 mm 1 m/S 753 mmHg 68%
    17:00 +31°C° 0.6 mm 2 m/S 753 mmHg 78%
    18:00 +29°C° 0.6 mm 2 m/S 753 mmHg 88%
    19:00 +28°C° 0.8 mm 1 m/S 754 mmHg 90%
    20:00 +28°C° 0.8 mm 1 m/S 754 mmHg 92%
    21:00 +25°C° 0.8 mm 0 m/S 755 mmHg 94%
    22:00 +27°C° 0.1 mm 1 m/S 755 mmHg 95%
    23:00 +27°C° 0.1 mm 1 m/S 755 mmHg 95%

    25 September, Mittwoch

    Zeit Temperatur Niederschläge Wind Luftdruck Luftfeuchtigkeit
    00:00 +26°C° 0.1 mm 1 m/S 755 mmHg 96%
    01:00 +26°C° 0.4 mm 1 m/S 755 mmHg 96%
    02:00 +26°C° 0.4 mm 1 m/S 755 mmHg 96%
    03:00 +24°C° 0.4 mm 0 m/S 755 mmHg 96%
    04:00 +24°C° 0.7 mm 0 m/S 755 mmHg 96%
    05:00 +24°C° 0.7 mm 0 m/S 755 mmHg 97%
    06:00 +24°C° 0.7 mm 0 m/S 755 mmHg 97%
    07:00 +27°C° 0.3 mm 1 m/S 755 mmHg 91%
    08:00 +29°C° 0.3 mm 1 m/S 756 mmHg 85%
    09:00 +31°C° 0.3 mm 1 m/S 756 mmHg 80%
    10:00 +32°C° 0.6 mm 1 m/S 755 mmHg 73%
    11:00 +34°C° 0.6 mm 1 m/S 755 mmHg 66%
    12:00 +36°C° 0.6 mm 1 m/S 754 mmHg 59%
    13:00 +35°C° 0.6 mm 1 m/S 754 mmHg 60%
    14:00 +36°C° 0.6 mm 2 m/S 753 mmHg 62%
    15:00 +35°C° 0.6 mm 2 m/S 752 mmHg 64%
    16:00 +34°C° 0.3 mm 2 m/S 752 mmHg 71%
    17:00 +31°C° 0.3 mm 2 m/S 753 mmHg 78%
    18:00 +29°C° 0.3 mm 2 m/S 753 mmHg 85%
    19:00 +29°C° 0.5 mm 2 m/S 753 mmHg 88%
    20:00 +28°C° 0.5 mm 2 m/S 754 mmHg 91%
    21:00 +27°C° 0.5 mm 1 m/S 755 mmHg 94%
    22:00 +27°C° 2 mm 1 m/S 754 mmHg 95%
    23:00 +27°C° 2 mm 1 m/S 754 mmHg 95%

    26 September, Donnerstag

    Zeit Temperatur Niederschläge Wind Luftdruck Luftfeuchtigkeit
    00:00 +27°C° 2 mm 1 m/S 754 mmHg 96%
    01:00 +27°C° 0.3 mm 1 m/S 754 mmHg 96%
    02:00 +27°C° 0.3 mm 1 m/S 754 mmHg 96%
    03:00 +26°C° 0.3 mm 1 m/S 754 mmHg 97%
    04:00 +24°C° 0.1 mm 0 m/S 754 mmHg 97%
    05:00 +24°C° 0.1 mm 0 m/S 754 mmHg 97%
    06:00 +24°C° 0.1 mm 0 m/S 754 mmHg 97%
    07:00 +26°C° 0 mm 0 m/S 755 mmHg 90%
    08:00 +29°C° 0 mm 1 m/S 755 mmHg 84%
    09:00 +31°C° 0 mm 1 m/S 755 mmHg 78%
    10:00 +33°C° 0 mm 1 m/S 755 mmHg 70%
    11:00 +34°C° 0 mm 1 m/S 755 mmHg 62%
    12:00 +36°C° 0 mm 1 m/S 754 mmHg 55%
    13:00 +35°C° 0.1 mm 1 m/S 753 mmHg 57%
    14:00 +36°C° 0.1 mm 2 m/S 753 mmHg 58%
    15:00 +35°C° 0.1 mm 3 m/S 752 mmHg 60%
    16:00 +32°C° 0.1 mm 2 m/S 752 mmHg 68%
    17:00 +31°C° 0.1 mm 2 m/S 753 mmHg 75%
    18:00 +29°C° 0.1 mm 2 m/S 753 mmHg 82%
    19:00 +28°C° 0 mm 2 m/S 754 mmHg 85%
    20:00 +28°C° 0 mm 1 m/S 754 mmHg 89%
    21:00 +27°C° 0 mm 1 m/S 755 mmHg 92%
    22:00 +27°C° 0 mm 1 m/S 755 mmHg 93%
    23:00 +27°C° 0 mm 1 m/S 755 mmHg 94%

    27 September, Freitag

    Zeit Temperatur Niederschläge Wind Luftdruck Luftfeuchtigkeit
    00:00 +27°C° 0 mm 1 m/S 755 mmHg 95%
    01:00 +27°C° 0 mm 1 m/S 754 mmHg 95%
    02:00 +27°C° 0 mm 1 m/S 754 mmHg 95%
    03:00 +27°C° 0 mm 1 m/S 754 mmHg 95%
    04:00 +27°C° 0.1 mm 1 m/S 754 mmHg 95%
    05:00 +27°C° 0.1 mm 1 m/S 754 mmHg 95%
    06:00 +27°C° 0.1 mm 1 m/S 754 mmHg 95%
    07:00 +29°C° 0.1 mm 1 m/S 755 mmHg 86%
    08:00 +31°C° 0.1 mm 2 m/S 755 mmHg 77%
    09:00 +34°C° 0.1 mm 3 m/S 756 mmHg 69%
    10:00 +34°C° 0.1 mm 3 m/S 755 mmHg 66%
    11:00 +35°C° 0.1 mm 3 m/S 755 mmHg 62%
    12:00 +36°C° 0.1 mm 3 m/S 755 mmHg 59%
    13:00 +35°C° 0.2 mm 4 m/S 754 mmHg 63%
    14:00 +35°C° 0.2 mm 4 m/S 753 mmHg 66%
    15:00 +34°C° 0.2 mm 4 m/S 753 mmHg 69%
    16:00 +33°C° 0.4 mm 4 m/S 753 mmHg 76%
    17:00 +30°C° 0.4 mm 3 m/S 754 mmHg 82%
    18:00 +29°C° 0.4 mm 2 m/S 754 mmHg 89%
    19:00 +29°C° 0.1 mm 2 m/S 754 mmHg 90%
    20:00 +28°C° 0.1 mm 2 m/S 755 mmHg 92%
    21:00 +28°C° 0.1 mm 2 m/S 755 mmHg 94%
    22:00 +28°C° 0.1 mm 2 m/S 755 mmHg 94%
    23:00 +28°C° 0.1 mm 2 m/S 755 mmHg 94%
    Mehr zeigen